This demonstration page uses our WeatherBlox Daily Observations layout. Learn more.

Left ArrowRight Arrow

36.17497, -115.13722

Hourly Observations for July 15, 2017

Temp ( °F °C ) Dew Point ( °F °C ) Humidity (%) Winds ( mph kmh ) Pressure ( in mb ) Visibility ( mi km ) Precip ( " mm )
12:53 am 00:53 Clear 94 34.4 43 6.1 17 17 N N/A 29.85 1011 10 16 N/A
1:53 am 01:53 Clear 91 32.8 43 6.1 19 19 N 3 6 29.85 1011 10 16 N/A
2:53 am 02:53 Clear 93 33.9 42 5.6 17 17 S 3 6 29.86 1011 10 16 N/A
3:53 am 03:53 Clear 91 32.8 44 6.7 20 20 N N/A 29.87 1011 10 16 N/A
4:53 am 04:53 Clear 88 31.1 41 5 19 19 NNW 7 11 29.88 1012 10 16 N/A
5:53 am 05:53 Sunny 88 31.1 41 5 19 19 NNW 7 11 29.90 1012 10 16 N/A
6:53 am 06:53 Sunny 89 31.7 42 5.6 19 19 N N/A 29.91 1013 10 16 N/A
7:53 am 07:53 Sunny 95 35 41 5 15 15 N N/A 29.91 1013 10 16 N/A
8:53 am 08:53 Sunny 98 36.7 39 3.9 13 13 N N/A 29.91 1013 10 16 N/A
9:53 am 09:53 Sunny 100 37.8 40 4.4 13 13 E 6 9 29.91 1013 10 16 N/A
10:53 am 10:53 Sunny 102 38.9 39 3.9 11 11 SE 5 7 29.91 1013 10 16 N/A
11:53 am 11:53 Sunny 104 40 39 3.9 11 11 VRB 6 9 29.89 1012 10 16 N/A
12:53 pm 12:53 Sunny 107 41.7 39 3.9 10 10 E 7 11 29.87 1011 10 16 N/A
1:53 pm 13:53 Sunny 108 42.2 38 3.3 9 9 VRB 6 9 29.84 1011 10 16 N/A
2:53 pm 14:53 Sunny 111 43.9 37 2.8 8 8 SSW 10 17 29.80 1009 10 16 N/A
3:53 pm 15:53 Sunny 111 43.9 34 1.1 7 7 VRB 3 6 29.77 1008 10 16 N/A
4:53 pm 16:53 Sunny 111 43.9 35 1.7 7 7 SE 7 11 29.74 1007 10 16 N/A
5:53 pm 17:53 Sunny 111 43.9 35 1.7 7 7 N N/A 29.72 1007 10 16 N/A
6:53 pm 18:53 Sunny 110 43.3 35 1.7 8 8 W 13 20 29.72 1006 10 16 N/A
7:53 pm 19:53 Sunny 108 42.2 35 1.7 8 8 WSW 10 17 29.72 1007 10 16 N/A
8:53 pm 20:53 Clear 106 41.1 35 1.7 9 9 WNW 7 11 29.74 1007 10 16 N/A
9:53 pm 21:53 Clear 103 39.4 37 2.8 10 10 N N/A 29.76 1008 10 16 N/A
10:53 pm 22:53 Clear 102 38.9 35 1.7 10 10 ENE 3 6 29.77 1008 10 16 N/A
11:53 pm 23:53 Clear 98 36.7 36 2.2 11 11 E 7 11 29.78 1009 10 16 N/A

Powered by AerisWeather